| time (UTC) | temp F | wind direction | speed MPH | gust MPH | rain 1hr in | rain 24hr in | rain mn in | humidity % | barometer mb |
| 20260902031740 | 67 | 336 | 0.0 | 0.0 | 0.00 | 0.00 | 0.00 | 99 | 1016.4 |
| 20260902031236 | 67 | 283 | 0.0 | 0.0 | 0.00 | 0.00 | 0.00 | 99 | 1016.3 |
| 20260902030731 | 67 | 20 | 0.0 | 0.0 | 0.00 | 0.00 | 0.00 | 99 | 1016.5 |
| 20260902030226 | 67 | 229 | 0.0 | 0.0 | 0.00 | 0.00 | 0.00 | 99 | 1016.6 |
| 20260902025725 | 67 | 275 | 0.0 | 0.0 | 0.00 | 0.29 | 0.29 | 99 | 1016.4 |
| 20260902025220 | 67 | 290 | 0.0 | 0.0 | 0.00 | 0.29 | 0.29 | 99 | 1016.5 |
| 20260902024715 | 67 | 301 | 0.0 | 0.0 | 0.00 | 0.29 | 0.29 | 99 | 1016.6 |
| 20260902024211 | 67 | 269 | 0.0 | 0.0 | 0.00 | 0.29 | 0.29 | 99 | 1016.6 |
| 20260902023706 | 67 | 262 | 0.0 | 0.0 | 0.00 | 0.29 | 0.29 | 99 | 1016.4 |
| 20260902023201 | 67 | 127 | 0.0 | 0.0 | 0.00 | 0.29 | 0.29 | 99 | 1016.5 |
| 20260902022701 | 67 | 251 | 0.0 | 0.0 | 0.00 | 0.29 | 0.29 | 99 | 1016.2 |
| 20260902022156 | 67 | 324 | 0.0 | 0.0 | 0.00 | 0.29 | 0.29 | 99 | 1016.4 |
| 20260902021652 | 67 | 312 | 0.0 | 0.0 | 0.00 | 0.29 | 0.29 | 99 | 1016.2 |
| 20260902021146 | 67 | 254 | 0.0 | 0.0 | 0.00 | 0.29 | 0.29 | 99 | 1015.8 |
| 20260902020642 | 67 | 248 | 0.0 | 0.0 | 0.00 | 0.29 | 0.29 | 99 | 1015.8 |
| 20260902020138 | 67 | 243 | 0.0 | 0.0 | 0.00 | 0.29 | 0.29 | 99 | 1015.8 |
| 20260902015633 | 67 | 248 | 0.0 | 0.0 | 0.00 | 0.29 | 0.29 | 99 | 1015.9 |
| 20260902015130 | 68 | 266 | 0.0 | 0.0 | 0.00 | 0.29 | 0.29 | 99 | 1015.4 |
| 20260902014625 | 68 | 294 | 0.0 | 0.0 | 0.00 | 0.29 | 0.29 | 99 | 1015.5 |
| 20260902014120 | 68 | 245 | 0.0 | 0.0 | 0.00 | 0.29 | 0.29 | 99 | 1015.3 |
| 20260902013620 | 68 | 278 | 0.0 | 0.0 | 0.00 | 0.29 | 0.29 | 99 | 1015.3 |
| 20260902013115 | 68 | 255 | 0.0 | 0.0 | 0.00 | 0.29 | 0.29 | 99 | 1015.2 |
| 20260902012611 | 68 | 241 | 0.0 | 0.0 | 0.00 | 0.29 | 0.29 | 99 | 1015.1 |
| 20260902012106 | 69 | 299 | 0.0 | 0.0 | 0.00 | 0.29 | 0.29 | 99 | 1014.9 |
| 20260902011602 | 69 | 162 | 0.0 | 0.0 | 0.00 | 0.29 | 0.29 | 99 | 1015.0 |
| 20260902011101 | 70 | 258 | 0.0 | 0.0 | 0.00 | 0.29 | 0.29 | 99 | 1014.6 |
| 20260902010601 | 70 | 230 | 0.0 | 0.0 | 0.00 | 0.29 | 0.29 | 99 | 1014.5 |
| 20260902010057 | 70 | 314 | 0.0 | 0.0 | 0.00 | 0.29 | 0.29 | 99 | 1014.4 |
| 20260902005554 | 70 | 180 | 0.0 | 0.0 | 0.00 | 0.29 | 0.29 | 99 | 1014.5 |
| 20260902005051 | 70 | 293 | 0.0 | 0.0 | 0.00 | 0.29 | 0.29 | 99 | 1014.4 |
| 20260902004550 | 71 | 253 | 0.0 | 0.0 | 0.00 | 0.29 | 0.29 | 99 | 1014.6 |
| 20260902004045 | 71 | 176 | 0.0 | 0.0 | 0.00 | 0.29 | 0.29 | 99 | 1014.5 |
| 20260902003541 | 71 | 182 | 0.0 | 0.0 | 0.00 | 0.29 | 0.29 | 99 | 1014.6 |
| 20260902003036 | 71 | 316 | 0.0 | 0.0 | 0.00 | 0.29 | 0.29 | 99 | 1014.3 |
| 20260902002532 | 71 | 206 | 0.0 | 0.0 | 0.00 | 0.29 | 0.29 | 99 | 1014.3 |
| 20260902002026 | 72 | 256 | 0.0 | 0.0 | 0.00 | 0.29 | 0.29 | 99 | 1014.4 |
| 20260902001521 | 72 | 207 | 0.0 | 0.0 | 0.00 | 0.29 | 0.29 | 99 | 1014.6 |
| 20260902001016 | 73 | 282 | 0.0 | 0.0 | 0.00 | 0.29 | 0.29 | 99 | 1014.6 |
| 20260902000511 | 73 | 215 | 0.0 | 0.0 | 0.00 | 0.29 | 0.29 | 99 | 1014.4 |
| 20260902000007 | 73 | 223 | 0.0 | 0.0 | 0.00 | 0.29 | 0.29 | 99 | 1014.3 |
| 20260901235501 | 74 | 302 | 0.0 | 0.0 | 0.00 | 0.29 | 0.29 | 99 | 1014.3 |
| 20260901234956 | 74 | 84 | 0.0 | 0.0 | 0.05 | 0.29 | 0.29 | 99 | 1014.3 |
| 20260901234450 | 74 | 63 | 0.0 | 0.0 | 0.05 | 0.29 | 0.29 | 99 | 1014.3 |
| 20260901233950 | 74 | 31 | 0.0 | 0.0 | 0.00 | 0.28 | 0.28 | 99 | 1014.2 |
| 20260901233445 | 74 | 97 | 0.0 | 0.0 | 0.00 | 0.28 | 0.28 | 99 | 1014.3 |
| 20260901232942 | 74 | 282 | 0.0 | 0.0 | 0.00 | 0.28 | 0.28 | 99 | 1013.9 |
| 20260901232436 | 74 | 272 | 0.0 | 0.0 | 0.07 | 0.28 | 0.28 | 99 | 1013.7 |
| 20260901231931 | 74 | 279 | 0.0 | 0.0 | 0.07 | 0.28 | 0.28 | 99 | 1014.4 |
| 20260901231428 | 74 | 294 | 0.0 | 0.0 | 0.00 | 0.27 | 0.27 | 99 | 1014.0 |
| 20260901230924 | 74 | 20 | 0.0 | 0.0 | 0.05 | 0.27 | 0.27 | 99 | 1014.1 |
| 20260901230423 | 74 | 51 | 0.0 | 0.0 | 0.05 | 0.27 | 0.27 | 99 | 1013.5 |
| 20260901225918 | 74 | 33 | 0.0 | 0.0 | 0.00 | 0.26 | 0.26 | 99 | 1013.8 |
| 20260901225413 | 74 | 232 | 0.0 | 0.0 | 0.00 | 0.26 | 0.26 | 99 | 1013.9 |
| 20260901224908 | 74 | 306 | 0.0 | 0.0 | 0.00 | 0.26 | 0.26 | 99 | 1013.9 |
| 20260901224404 | 74 | 101 | 0.0 | 0.0 | 0.00 | 0.26 | 0.26 | 99 | 1013.9 |
| 20260901223900 | 75 | 73 | 0.0 | 0.0 | 0.00 | 0.26 | 0.26 | 99 | 1014.0 |
| 20260901223355 | 74 | 93 | 0.0 | 0.0 | 0.07 | 0.26 | 0.26 | 99 | 1013.5 |
| 20260901222851 | 74 | 75 | 0.0 | 0.0 | 0.61 | 0.26 | 0.26 | 99 | 1013.4 |
| 20260901222347 | 74 | 29 | 0.0 | 0.0 | 0.97 | 0.25 | 0.25 | 99 | 1013.3 |
| 20260901221843 | 75 | 118 | 0.0 | 0.0 | 0.54 | 0.16 | 0.16 | 99 | 1013.6 |
| 20260901221338 | 76 | 22 | 0.0 | 0.0 | 0.19 | 0.10 | 0.10 | 96 | 1013.5 |
| 20260901220838 | 77 | 278 | 0.0 | 0.0 | 0.00 | 0.07 | 0.07 | 93 | 1013.3 |
| 20260901220337 | 77 | 9 | 0.0 | 0.0 | 0.00 | 0.07 | 0.07 | 91 | 1013.3 |
| 20260901215836 | 78 | 273 | 0.0 | 0.0 | 0.00 | 0.07 | 0.07 | 90 | 1013.3 |
| 20260901215335 | 78 | 347 | 0.0 | 0.0 | 0.00 | 0.07 | 0.07 | 89 | 1013.4 |
| 20260901214834 | 78 | 39 | 0.0 | 0.0 | 0.00 | 0.07 | 0.07 | 89 | 1013.4 |
| 20260901214333 | 78 | 282 | 0.0 | 0.0 | 0.00 | 0.07 | 0.07 | 89 | 1013.2 |
| 20260901213828 | 78 | 331 | 0.0 | 0.0 | 0.00 | 0.07 | 0.07 | 89 | 1013.5 |
| 20260901213328 | 79 | 285 | 0.0 | 0.0 | 0.00 | 0.07 | 0.07 | 88 | 1013.1 |
| 20260901212822 | 79 | 337 | 0.0 | 0.0 | 0.00 | 0.07 | 0.07 | 88 | 1013.4 |
| 20260901212318 | 80 | 264 | 0.0 | 0.0 | 0.00 | 0.07 | 0.07 | 87 | 1013.3 |
| 20260901211814 | 80 | 334 | 0.0 | 0.0 | 0.00 | 0.07 | 0.07 | 86 | 1013.0 |
| 20260901211310 | 81 | 272 | 0.0 | 0.0 | 0.00 | 0.07 | 0.07 | 85 | 1013.5 |
| 20260901210805 | 81 | 357 | 0.0 | 0.0 | 0.00 | 0.07 | 0.07 | 84 | 1013.2 |
| 20260901210301 | 82 | 344 | 0.0 | 0.0 | 0.00 | 0.07 | 0.07 | 84 | 1013.2 |
| 20260901205757 | 82 | 268 | 0.0 | 0.0 | 0.00 | 0.07 | 0.07 | 84 | 1013.3 |
| 20260901205256 | 82 | 338 | 0.0 | 0.0 | 0.00 | 0.07 | 0.07 | 83 | 1013.1 |
| 20260901204752 | 83 | 226 | 0.0 | 0.0 | 0.00 | 0.07 | 0.07 | 82 | 1013.1 |
| 20260901204248 | 82 | 278 | 0.0 | 0.0 | 0.00 | 0.07 | 0.07 | 83 | 1013.1 |
| 20260901203742 | 83 | 208 | 0.0 | 0.0 | 0.00 | 0.07 | 0.07 | 83 | 1013.2 |
| 20260901203237 | 82 | 4 | 0.0 | 0.0 | 0.00 | 0.07 | 0.07 | 83 | 1013.3 |
| 20260901202736 | 83 | 250 | 0.0 | 0.0 | 0.00 | 0.07 | 0.07 | 83 | 1013.2 |
| 20260901202232 | 83 | 226 | 0.0 | 0.0 | 0.00 | 0.07 | 0.07 | 82 | 1013.3 |
| 20260901201727 | 84 | 37 | 0.0 | 0.0 | 0.00 | 0.07 | 0.07 | 80 | 1013.3 |
| 20260901201226 | 83 | 136 | 0.0 | 0.0 | 0.00 | 0.07 | 0.07 | 81 | 1013.3 |
| 20260901200720 | 82 | 87 | 0.0 | 0.0 | 0.00 | 0.07 | 0.07 | 83 | 1013.5 |
| 20260901200216 | 83 | 80 | 0.0 | 0.0 | 0.00 | 0.07 | 0.07 | 82 | 1013.3 |
| 20260901195713 | 84 | 18 | 0.0 | 0.0 | 0.00 | 0.07 | 0.07 | 80 | 1013.2 |
| 20260901195207 | 83 | 324 | 0.0 | 0.0 | 0.00 | 0.07 | 0.07 | 82 | 1013.2 |
| 20260901194704 | 83 | 313 | 0.0 | 0.0 | 0.00 | 0.07 | 0.07 | 81 | 1013.1 |
| 20260901194153 | 82 | 76 | 0.0 | 0.0 | 0.00 | 0.07 | 0.07 | 82 | 1013.2 |
| 20260901193648 | 82 | 118 | 0.0 | 0.0 | 0.00 | 0.07 | 0.07 | 82 | 1013.5 |
| 20260901193142 | 83 | 96 | 0.0 | 0.0 | 0.00 | 0.07 | 0.07 | 80 | 1013.4 |
| 20260901192637 | 84 | 111 | 0.0 | 0.0 | 0.00 | 0.07 | 0.07 | 79 | 1013.4 |
| 20260901192132 | 82 | 132 | 0.0 | 0.0 | 0.00 | 0.07 | 0.07 | 81 | 1013.4 |
| 20260901191628 | 82 | 33 | 0.0 | 0.0 | 0.00 | 0.07 | 0.07 | 81 | 1013.5 |
| 20260901191124 | 82 | 349 | 0.0 | 0.0 | 0.00 | 0.07 | 0.07 | 82 | 1013.7 |
| 20260901190620 | 82 | 317 | 0.0 | 0.0 | 0.00 | 0.07 | 0.07 | 83 | 1013.6 |
| 20260901190119 | 82 | 68 | 0.0 | 0.0 | 0.00 | 0.07 | 0.07 | 84 | 1013.6 |
| 20260901185617 | 81 | 82 | 0.0 | 0.0 | 0.00 | 0.07 | 0.07 | 85 | 1013.5 |
| 20260901185116 | 81 | 56 | 0.0 | 0.0 | 0.00 | 0.07 | 0.07 | 85 | 1013.4 |
| 20260901184613 | 81 | 96 | 0.0 | 0.0 | 0.00 | 0.07 | 0.07 | 85 | 1013.4 |
| 20260901184108 | 80 | 124 | 0.0 | 0.0 | 0.00 | 0.07 | 0.07 | 86 | 1013.6 |
| 20260901183607 | 80 | 106 | 0.0 | 0.0 | 0.00 | 0.07 | 0.07 | 86 | 1013.8 |
| 20260901183103 | 80 | 288 | 0.0 | 0.0 | 0.00 | 0.07 | 0.07 | 86 | 1013.6 |
| 20260901182600 | 80 | 98 | 0.0 | 0.0 | 0.00 | 0.07 | 0.07 | 86 | 1013.5 |
| 20260901182059 | 80 | 97 | 0.0 | 0.0 | 0.00 | 0.07 | 0.07 | 85 | 1013.6 |
| 20260901181558 | 80 | 149 | 0.0 | 0.0 | 0.00 | 0.07 | 0.07 | 86 | 1013.5 |
| 20260901181052 | 80 | 87 | 0.0 | 0.0 | 0.00 | 0.07 | 0.07 | 86 | 1013.5 |
| 20260901180551 | 80 | 115 | 0.0 | 0.0 | 0.00 | 0.07 | 0.07 | 87 | 1013.4 |
| 20260901180046 | 80 | 119 | 0.0 | 0.0 | 0.00 | 0.07 | 0.07 | 87 | 1013.4 |
| 20260901175539 | 79 | 76 | 0.0 | 0.0 | 0.00 | 0.07 | 0.07 | 89 | 1013.2 |
| 20260901175034 | 79 | 157 | 0.0 | 0.0 | 0.00 | 0.07 | 0.07 | 90 | 1013.2 |
| 20260901174530 | 79 | 93 | 0.0 | 0.0 | 0.00 | 0.07 | 0.07 | 90 | 1013.4 |
| 20260901174026 | 79 | 104 | 0.0 | 0.0 | 0.00 | 0.07 | 0.07 | 90 | 1013.1 |
| 20260901173526 | 78 | 119 | 0.0 | 0.0 | 0.00 | 0.07 | 0.07 | 92 | 1013.3 |
| 20260901173022 | 76 | 73 | 0.0 | 0.0 | 0.00 | 0.07 | 0.07 | 94 | 1013.9 |
| 20260901172517 | 76 | 112 | 0.0 | 0.0 | 0.00 | 0.07 | 0.07 | 94 | 1014.5 |
| 20260901172015 | 75 | 73 | 0.0 | 0.0 | 0.00 | 0.07 | 0.07 | 97 | 1014.4 |
| 20260901171514 | 75 | 109 | 0.0 | 0.0 | 0.00 | 0.07 | 0.07 | 97 | 1014.4 |
| 20260901171014 | 75 | 104 | 0.0 | 0.0 | 0.00 | 0.07 | 0.07 | 97 | 1014.2 |
| 20260901170508 | 75 | 171 | 0.0 | 0.0 | 0.00 | 0.07 | 0.07 | 97 | 1014.4 |
| 20260901170009 | 75 | 110 | 0.0 | 0.0 | 0.00 | 0.07 | 0.07 | 97 | 1014.3 |
| 20260901165503 | 75 | 110 | 0.0 | 0.0 | 0.00 | 0.07 | 0.07 | 98 | 1014.2 |
| 20260901164958 | 75 | 96 | 0.0 | 0.0 | 0.00 | 0.07 | 0.07 | 97 | 1014.3 |
| 20260901164454 | 75 | 133 | 0.0 | 0.0 | 0.05 | 0.07 | 0.07 | 98 | 1014.4 |
| 20260901163948 | 75 | 90 | 0.0 | 0.0 | 0.05 | 0.07 | 0.07 | 98 | 1014.2 |
| 20260901163444 | 75 | 93 | 0.0 | 0.0 | 0.00 | 0.06 | 0.06 | 98 | 1014.3 |
| 20260901162942 | 75 | 88 | 0.0 | 0.0 | 0.00 | 0.06 | 0.06 | 98 | 1014.3 |
| 20260901162438 | 75 | 93 | 0.0 | 0.0 | 0.00 | 0.06 | 0.06 | 98 | 1014.6 |
| 20260901161931 | 75 | 78 | 0.0 | 0.0 | 0.00 | 0.06 | 0.06 | 98 | 1014.6 |
| 20260901161431 | 74 | 83 | 0.0 | 0.0 | 0.07 | 0.06 | 0.06 | 98 | 1015.0 |
| 20260901160926 | 74 | 71 | 0.0 | 0.0 | 0.07 | 0.06 | 0.06 | 98 | 1015.1 |
| 20260901160422 | 74 | 34 | 0.0 | 0.0 | 0.00 | 0.05 | 0.05 | 98 | 1015.3 |
| 20260901155921 | 74 | 18 | 0.0 | 0.0 | 0.05 | 0.05 | 0.05 | 98 | 1015.3 |
| 20260901155421 | 74 | 143 | 0.0 | 0.0 | 0.05 | 0.05 | 0.05 | 98 | 1015.5 |
| 20260901154918 | 74 | 98 | 0.0 | 0.0 | 0.00 | 0.04 | 0.04 | 98 | 1015.6 |
| 20260901154417 | 74 | 147 | 0.0 | 0.0 | 0.00 | 0.04 | 0.04 | 98 | 1015.7 |
| 20260901153912 | 74 | 101 | 0.0 | 0.0 | 0.12 | 0.04 | 0.04 | 99 | 1015.9 |
| 20260901153411 | 74 | 176 | 0.0 | 0.0 | 0.19 | 0.04 | 0.04 | 98 | 1015.8 |
| 20260901152906 | 74 | 156 | 0.0 | 0.0 | 0.12 | 0.03 | 0.03 | 96 | 1015.6 |
| 20260901152400 | 75 | 122 | 0.0 | 0.0 | 0.00 | 0.01 | 0.01 | 94 | 1015.5 |
| 20260901151855 | 75 | 131 | 0.0 | 0.0 | 0.00 | 0.01 | 0.01 | 92 | 1015.6 |
| 20260901151350 | 76 | 185 | 0.0 | 0.0 | 0.00 | 0.01 | 0.01 | 92 | 1015.6 |
| 20260901150849 | 76 | 138 | 0.0 | 0.0 | 0.00 | 0.01 | 0.01 | 91 | 1015.6 |
| 20260901150347 | 76 | 197 | 0.0 | 0.0 | 0.00 | 0.01 | 0.01 | 91 | 1015.9 |
| 20260901145844 | 77 | 198 | 0.0 | 0.0 | 0.00 | 0.01 | 0.01 | 90 | 1015.8 |
| 20260901145339 | 76 | 100 | 0.0 | 0.0 | 0.00 | 0.01 | 0.01 | 89 | 1015.7 |
| 20260901144834 | 76 | 100 | 0.0 | 0.0 | 0.00 | 0.01 | 0.01 | 90 | 1015.6 |
| 20260901144329 | 76 | 84 | 0.0 | 0.0 | 0.00 | 0.01 | 0.01 | 90 | 1015.5 |
| 20260901143825 | 76 | 99 | 0.0 | 0.0 | 0.00 | 0.01 | 0.01 | 89 | 1015.5 |
| 20260901143316 | 76 | 128 | 0.0 | 0.0 | 0.00 | 0.01 | 0.01 | 91 | 1015.5 |
| 20260901142812 | 76 | 137 | 0.0 | 0.0 | 0.00 | 0.01 | 0.01 | 91 | 1015.3 |
| 20260901142310 | 76 | 111 | 0.0 | 0.0 | 0.00 | 0.01 | 0.01 | 90 | 1015.6 |
| 20260901141806 | 76 | 109 | 0.0 | 0.0 | 0.00 | 0.01 | 0.01 | 90 | 1015.3 |
| 20260901141301 | 76 | 108 | 0.0 | 0.0 | 0.00 | 0.01 | 0.01 | 91 | 1015.4 |
| 20260901140800 | 76 | 93 | 0.0 | 0.0 | 0.00 | 0.01 | 0.01 | 91 | 1015.1 |
| 20260901140258 | 75 | 106 | 0.0 | 0.0 | 0.00 | 0.01 | 0.01 | 91 | 1015.2 |
| 20260901135754 | 76 | 84 | 0.0 | 0.0 | 0.00 | 0.01 | 0.01 | 90 | 1015.2 |
| 20260901135253 | 75 | 144 | 0.0 | 0.0 | 0.00 | 0.01 | 0.01 | 91 | 1015.1 |
| 20260901134750 | 76 | 113 | 0.0 | 0.0 | 0.00 | 0.01 | 0.01 | 90 | 1015.3 |
| 20260901134249 | 75 | 70 | 0.0 | 0.0 | 0.00 | 0.01 | 0.01 | 92 | 1015.3 |
| 20260901133748 | 75 | 135 | 0.0 | 0.0 | 0.00 | 0.01 | 0.01 | 92 | 1015.4 |
| 20260901133242 | 75 | 98 | 0.0 | 0.0 | 0.00 | 0.01 | 0.01 | 93 | 1015.2 |
| 20260901132741 | 75 | 67 | 0.0 | 0.0 | 0.00 | 0.01 | 0.01 | 94 | 1015.1 |
| 20260901132236 | 74 | 48 | 0.0 | 0.0 | 0.00 | 0.01 | 0.01 | 94 | 1015.1 |
| 20260901131730 | 75 | 91 | 0.0 | 0.0 | 0.00 | 0.01 | 0.01 | 94 | 1015.5 |
| 20260901131230 | 74 | 101 | 0.0 | 0.0 | 0.00 | 0.01 | 0.01 | 94 | 1015.2 |
| 20260901130725 | 74 | 86 | 0.0 | 0.0 | 0.00 | 0.01 | 0.01 | 94 | 1015.3 |
| 20260901130224 | 74 | 137 | 0.0 | 0.0 | 0.00 | 0.01 | 0.01 | 94 | 1015.2 |
| 20260901125722 | 74 | 136 | 0.0 | 0.0 | 0.00 | 0.01 | 0.01 | 95 | 1015.2 |
| 20260901125218 | 73 | 115 | 0.0 | 0.0 | 0.00 | 0.01 | 0.01 | 95 | 1015.3 |
| 20260901124712 | 74 | 100 | 0.0 | 0.0 | 0.00 | 0.01 | 0.01 | 93 | 1015.0 |
| 20260901124206 | 74 | 102 | 0.0 | 0.0 | 0.00 | 0.01 | 0.01 | 94 | 1015.3 |
| 20260901123701 | 74 | 91 | 0.0 | 0.0 | 0.00 | 0.01 | 0.01 | 94 | 1015.4 |
| 20260901123156 | 73 | 102 | 0.0 | 0.0 | 0.00 | 0.01 | 0.01 | 94 | 1015.4 |
| 20260901122654 | 73 | 88 | 0.0 | 0.0 | 0.00 | 0.01 | 0.01 | 96 | 1015.1 |
| 20260901122149 | 73 | 93 | 0.0 | 0.0 | 0.00 | 0.01 | 0.01 | 96 | 1015.4 |
| 20260901121643 | 73 | 96 | 0.0 | 0.0 | 0.00 | 0.01 | 0.01 | 97 | 1015.3 |
| 20260901121138 | 72 | 79 | 0.0 | 0.0 | 0.05 | 0.01 | 0.01 | 97 | 1015.3 |
| 20260901120633 | 73 | 93 | 0.0 | 0.0 | 0.05 | 0.01 | 0.01 | 97 | 1015.3 |
| 20260901120128 | 73 | 159 | 0.0 | 0.0 | 0.00 | 0.00 | 0.00 | 96 | 1015.5 |
| 20260901115623 | 73 | 143 | 0.0 | 0.0 | 0.00 | 0.00 | 0.00 | 96 | 1015.6 |
| 20260901115120 | 73 | 171 | 0.0 | 0.0 | 0.00 | 0.00 | 0.00 | 94 | 1015.5 |
| 20260901114616 | 73 | 100 | 0.0 | 0.0 | 0.00 | 0.00 | 0.00 | 91 | 1015.4 |
| 20260901114115 | 73 | 109 | 0.0 | 0.0 | 0.00 | 0.00 | 0.00 | 94 | 1015.3 |
| 20260901113613 | 73 | 74 | 0.0 | 0.0 | 0.00 | 0.00 | 0.00 | 93 | 1015.4 |
| 20260901113103 | 73 | 136 | 0.0 | 0.0 | 0.00 | 0.00 | 0.00 | 91 | 1015.6 |
| 20260901112602 | 73 | 96 | 0.0 | 0.0 | 0.00 | 0.00 | 0.00 | 93 | 1015.6 |
| 20260901112057 | 73 | 124 | 0.0 | 0.0 | 0.00 | 0.00 | 0.00 | 91 | 1015.8 |
| 20260901111556 | 73 | 147 | 0.0 | 0.0 | 0.00 | 0.00 | 0.00 | 91 | 1015.9 |
| 20260901111054 | 73 | 107 | 0.0 | 0.0 | 0.00 | 0.00 | 0.00 | 91 | 1015.7 |
| 20260901110551 | 73 | 115 | 0.0 | 0.0 | 0.00 | 0.00 | 0.00 | 92 | 1015.9 |
| 20260901110047 | 73 | 130 | 0.0 | 0.0 | 0.00 | 0.00 | 0.00 | 91 | 1015.5 |
| 20260901105543 | 73 | 134 | 0.0 | 0.0 | 0.00 | 0.00 | 0.00 | 92 | 1015.5 |
| 20260901105041 | 73 | 134 | 0.0 | 0.0 | 0.00 | 0.00 | 0.00 | 92 | 1015.4 |
| 20260901104538 | 73 | 107 | 0.0 | 0.0 | 0.00 | 0.00 | 0.00 | 92 | 1015.5 |
| 20260901104033 | 73 | 73 | 0.0 | 0.0 | 0.00 | 0.00 | 0.00 | 93 | 1015.4 |
| 20260901103527 | 73 | 111 | 0.0 | 0.0 | 0.00 | 0.00 | 0.00 | 92 | 1015.5 |
| 20260901103023 | 73 | 90 | 0.0 | 0.0 | 0.00 | 0.00 | 0.00 | 91 | 1015.3 |
| 20260901102517 | 73 | 117 | 0.0 | 0.0 | 0.00 | 0.00 | 0.00 | 93 | 1015.4 |
| 20260901102012 | 73 | 123 | 0.0 | 0.0 | 0.00 | 0.00 | 0.00 | 92 | 1015.5 |
| 20260901101508 | 73 | 120 | 0.0 | 0.0 | 0.00 | 0.00 | 0.00 | 93 | 1015.2 |
| 20260901101002 | 73 | 138 | 0.0 | 0.0 | 0.00 | 0.00 | 0.00 | 92 | 1015.3 |
| 20260901100502 | 73 | 117 | 0.0 | 0.0 | 0.00 | 0.00 | 0.00 | 92 | 1015.2 |
| 20260901100000 | 73 | 134 | 0.0 | 0.0 | 0.00 | 0.00 | 0.00 | 92 | 1015.4 |
| 20260901095459 | 73 | 131 | 0.0 | 0.0 | 0.00 | 0.00 | 0.00 | 92 | 1015.5 |
| 20260901094957 | 73 | 93 | 0.0 | 0.0 | 0.00 | 0.00 | 0.00 | 92 | 1015.4 |
| 20260901094452 | 73 | 117 | 0.0 | 0.0 | 0.00 | 0.00 | 0.00 | 93 | 1015.1 |
| 20260901093947 | 73 | 88 | 0.0 | 0.0 | 0.00 | 0.00 | 0.00 | 92 | 1015.2 |
| 20260901093441 | 73 | 126 | 0.0 | 0.0 | 0.00 | 0.00 | 0.00 | 91 | 1015.4 |
| 20260901092936 | 73 | 87 | 0.0 | 0.0 | 0.00 | 0.00 | 0.00 | 91 | 1015.2 |
| 20260901092432 | 73 | 100 | 0.0 | 0.0 | 0.00 | 0.00 | 0.00 | 91 | 1015.4 |
| 20260901091928 | 73 | 99 | 0.0 | 0.0 | 0.00 | 0.00 | 0.00 | 92 | 1015.5 |
| 20260901091428 | 73 | 161 | 0.0 | 0.0 | 0.00 | 0.00 | 0.00 | 92 | 1015.5 |
| 20260901090923 | 73 | 98 | 0.0 | 0.0 | 0.00 | 0.00 | 0.00 | 92 | 1015.5 |
| 20260901090422 | 73 | 120 | 0.0 | 0.0 | 0.00 | 0.00 | 0.00 | 91 | 1015.6 |
| 20260901085918 | 73 | 174 | 0.0 | 0.0 | 0.00 | 0.00 | 0.00 | 92 | 1015.6 |
| 20260901085414 | 73 | 122 | 0.0 | 0.0 | 0.00 | 0.00 | 0.00 | 91 | 1015.6 |
| 20260901084910 | 73 | 109 | 0.0 | 0.0 | 0.00 | 0.00 | 0.00 | 92 | 1015.8 |
| 20260901084406 | 73 | 132 | 0.0 | 0.0 | 0.00 | 0.00 | 0.00 | 91 | 1015.7 |
| 20260901083901 | 73 | 73 | 0.0 | 0.0 | 0.00 | 0.00 | 0.00 | 92 | 1015.6 |
| 20260901083356 | 73 | 98 | 0.0 | 0.0 | 0.00 | 0.00 | 0.00 | 91 | 1015.8 |
| 20260901082854 | 73 | 134 | 0.0 | 0.0 | 0.00 | 0.00 | 0.00 | 91 | 1015.9 |
| 20260901082349 | 73 | 140 | 0.0 | 0.0 | 0.00 | 0.00 | 0.00 | 92 | 1015.7 |
| 20260901081844 | 73 | 93 | 0.0 | 0.0 | 0.00 | 0.00 | 0.00 | 92 | 1015.6 |
| 20260901081340 | 73 | 99 | 0.0 | 0.0 | 0.00 | 0.00 | 0.00 | 92 | 1015.6 |
| 20260901080833 | 73 | 90 | 0.0 | 0.0 | 0.00 | 0.00 | 0.00 | 92 | 1015.6 |
| 20260901080328 | 73 | 122 | 0.0 | 0.0 | 0.00 | 0.00 | 0.00 | 91 | 1015.8 |
| 20260901075828 | 73 | 151 | 0.0 | 0.0 | 0.00 | 0.00 | 0.00 | 91 | 1016.0 |
| 20260901075323 | 73 | 177 | 0.0 | 0.0 | 0.00 | 0.00 | 0.00 | 92 | 1016.0 |
| 20260901074818 | 73 | 124 | 0.0 | 0.0 | 0.00 | 0.00 | 0.00 | 92 | 1015.8 |
| 20260901074312 | 73 | 132 | 0.0 | 0.0 | 0.00 | 0.00 | 0.00 | 92 | 1015.6 |
| 20260901073808 | 73 | 107 | 0.0 | 0.0 | 0.00 | 0.00 | 0.00 | 91 | 1015.8 |
| 20260901073303 | 73 | 105 | 0.0 | 0.0 | 0.00 | 0.00 | 0.00 | 90 | 1015.9 |
| 20260901072759 | 73 | 105 | 0.0 | 0.0 | 0.00 | 0.00 | 0.00 | 91 | 1015.7 |
| 20260901072259 | 73 | 138 | 0.0 | 0.0 | 0.00 | 0.00 | 0.00 | 91 | 1015.8 |
| 20260901071754 | 73 | 155 | 0.0 | 0.0 | 0.00 | 0.00 | 0.00 | 91 | 1015.6 |
| 20260901071253 | 73 | 116 | 0.0 | 0.0 | 0.00 | 0.00 | 0.00 | 91 | 1016.1 |
| 20260901070752 | 73 | 94 | 0.0 | 0.0 | 0.00 | 0.00 | 0.00 | 91 | 1016.0 |
| 20260901070248 | 73 | 92 | 0.0 | 0.0 | 0.00 | 0.00 | 0.00 | 90 | 1016.1 |
| 20260901065747 | 72 | 92 | 0.0 | 0.0 | 0.00 | 0.00 | 0.00 | 91 | 1015.9 |
| 20260901065242 | 72 | 96 | 0.0 | 0.0 | 0.00 | 0.00 | 0.00 | 92 | 1015.9 |
| 20260901064738 | 72 | 100 | 0.0 | 0.0 | 0.00 | 0.00 | 0.00 | 91 | 1016.0 |
| 20260901064234 | 72 | 89 | 0.0 | 0.0 | 0.00 | 0.00 | 0.00 | 91 | 1016.0 |
| 20260901063731 | 72 | 117 | 0.0 | 0.0 | 0.00 | 0.00 | 0.00 | 90 | 1016.2 |
| 20260901063227 | 72 | 78 | 0.0 | 0.0 | 0.00 | 0.00 | 0.00 | 91 | 1016.3 |
| 20260901062723 | 72 | 155 | 0.0 | 0.0 | 0.00 | 0.00 | 0.00 | 90 | 1016.1 |
| 20260901062219 | 72 | 114 | 0.0 | 0.0 | 0.00 | 0.00 | 0.00 | 89 | 1016.3 |
| 20260901061714 | 72 | 78 | 0.0 | 0.0 | 0.00 | 0.00 | 0.00 | 89 | 1016.3 |
| 20260901061214 | 72 | 69 | 0.0 | 0.0 | 0.00 | 0.00 | 0.00 | 90 | 1016.5 |
| 20260901060709 | 72 | 94 | 0.0 | 0.0 | 0.00 | 0.00 | 0.00 | 90 | 1016.4 |
| 20260901060159 | 72 | 103 | 0.0 | 0.0 | 0.00 | 0.00 | 0.00 | 91 | 1016.5 |
| 20260901055654 | 72 | 93 | 0.0 | 0.0 | 0.00 | 0.00 | 0.00 | 90 | 1016.5 |
| 20260901055151 | 72 | 111 | 0.0 | 0.0 | 0.00 | 0.00 | 0.00 | 90 | 1016.6 |
| 20260901054648 | 72 | 115 | 0.0 | 0.0 | 0.00 | 0.00 | 0.00 | 91 | 1016.9 |
| 20260901054144 | 72 | 129 | 0.0 | 0.0 | 0.00 | 0.00 | 0.00 | 90 | 1016.8 |
| 20260901053640 | 72 | 129 | 0.0 | 0.0 | 0.00 | 0.00 | 0.00 | 90 | 1016.8 |
| 20260901053136 | 72 | 101 | 0.0 | 0.0 | 0.00 | 0.00 | 0.00 | 89 | 1016.7 |
| 20260901052630 | 72 | 66 | 0.0 | 0.0 | 0.00 | 0.00 | 0.00 | 90 | 1016.9 |
| 20260901052126 | 72 | 88 | 0.0 | 0.0 | 0.00 | 0.00 | 0.00 | 90 | 1016.9 |
| 20260901051625 | 72 | 107 | 0.0 | 0.0 | 0.00 | 0.00 | 0.00 | 89 | 1017.1 |
| 20260901051124 | 72 | 100 | 0.0 | 0.0 | 0.00 | 0.00 | 0.00 | 89 | 1017.0 |
| 20260901050620 | 72 | 72 | 0.0 | 0.0 | 0.00 | 0.00 | 0.00 | 89 | 1017.0 |
| 20260901050115 | 72 | 123 | 0.0 | 0.0 | 0.00 | 0.00 | 0.00 | 88 | 1016.9 |
| 20260901045609 | 72 | 80 | 0.0 | 0.0 | 0.00 | 0.00 | 0.00 | 87 | 1016.9 |
| 20260901045104 | 72 | 43 | 0.0 | 0.0 | 0.00 | 0.00 | 0.00 | 87 | 1016.9 |
| 20260901044600 | 73 | 97 | 0.0 | 0.0 | 0.00 | 0.00 | 0.00 | 86 | 1017.1 |
| 20260901044055 | 72 | 130 | 0.0 | 0.0 | 0.00 | 0.00 | 0.00 | 87 | 1016.9 |
| 20260901043551 | 73 | 114 | 0.0 | 0.0 | 0.00 | 0.00 | 0.00 | 86 | 1017.0 |
| 20260901043047 | 73 | 95 | 0.0 | 0.0 | 0.00 | 0.00 | 0.00 | 87 | 1017.0 |
| 20260901042546 | 73 | 58 | 0.0 | 0.0 | 0.00 | 0.00 | 0.00 | 88 | 1017.0 |
| 20260901042041 | 72 | 154 | 0.0 | 0.0 | 0.00 | 0.00 | 0.00 | 88 | 1017.0 |
| 20260901041536 | 73 | 121 | 0.0 | 0.0 | 0.00 | 0.00 | 0.00 | 87 | 1017.3 |
| 20260901041036 | 73 | 127 | 0.0 | 0.0 | 0.00 | 0.00 | 0.00 | 86 | 1017.2 |
| 20260901040536 | 73 | 78 | 0.0 | 0.0 | 0.00 | 0.00 | 0.00 | 87 | 1017.2 |
| 20260901040031 | 73 | 162 | 0.0 | 0.0 | 0.00 | 0.00 | 0.00 | 86 | 1017.1 |
| 20260901035529 | 73 | 37 | 0.0 | 0.0 | 0.00 | 0.00 | 0.00 | 87 | 1017.1 |
| 20260901035028 | 73 | 150 | 0.0 | 0.0 | 0.00 | 0.00 | 0.00 | 85 | 1017.1 |
| 20260901034527 | 73 | 123 | 0.0 | 0.0 | 0.00 | 0.00 | 0.00 | 85 | 1017.2 |
| 20260901034022 | 73 | 103 | 0.0 | 0.0 | 0.00 | 0.00 | 0.00 | 86 | 1017.1 |
| 20260901033521 | 73 | 89 | 0.0 | 0.0 | 0.00 | 0.00 | 0.00 | 86 | 1017.3 |
| 20260901033021 | 73 | 83 | 0.0 | 0.0 | 0.00 | 0.00 | 0.00 | 87 | 1017.5 |
| 20260901032515 | 73 | 99 | 0.0 | 0.0 | 0.00 | 0.00 | 0.00 | 86 | 1017.3 |
| 20260901032015 | 73 | 104 | 0.0 | 0.0 | 0.00 | 0.00 | 0.00 | 85 | 1017.3 |